Weather History for KIYA - August, 2014

Change the Weather History Date:

Monday, August 11, 2014

  Actual Average (KARA) Record (KARA)
Temperature  
Mean Temperature 81 °F 83 °F  
Max Temperature 88 °F 92 °F 102 °F (2007)
Min Temperature 74 °F 74 °F 65 °F (1976)
Degree Days  
Heating Degree Days 0 0  
Month to date heating degree days 0  
Since 1 June heating degree days 0  
Since 1 July heating degree days 0  
Cooling Degree Days 16 18  
Month to date cooling degree days 198  
Year to date cooling degree days 1786  
Since 1 June cooling degree days 1216  
Growing Degree Days 31 (Base 50)    
Moisture  
Dew Point 75 °F    
Average Humidity 86    
Maximum Humidity 100    
Minimum Humidity 61    
Precipitation  
Precipitation 0.36 in 0.14 in 3.00 in (1996)
Month to date precipitation 1.86  
Year to date precipitation 37.63  
Sea Level Pressure  
Sea Level Pressure 30.02 in    
Wind  
Wind Speed 2 mph (WNW)    
Max Wind Speed 17 mph    
Max Gust Speed 30 mph    
Visibility 9 miles    
Events Rain , Thunderstorm    
T = Trace of Precipitation, MM = Missing Value Source: NWS Daily Summary

Daily Weather History Graph

Daily Weather History Graph

Search for Another Location

Airport or City:

Trip Planner

Search our weather history database for the weather conditions in past years. The results will help you decide how hot, cold, wet, or windy it might be!

Date:

Astronomy

Aug. 11, 2014 Rise Set
Actual Time 6:33 AM CDT 7:53 PM CDT
Civil Twilight 6:08 AM CDT 8:18 PM CDT
Nautical Twilight 5:37 AM CDT 8:48 PM CDT
Astronomical Twilight 5:06 AM CDT 9:19 PM CDT
Moon 8:32 PM CDT (8/11) 7:30 AM CDT (8/11)
Length of Visible Light 14h 10m
Length of Day
13h 19m
Full, 99% of the Moon is Illuminated
Aug 11
Full
Aug 17
Last Quarter
Aug 25
New
Sep 2
First Quarter
Sep 8
Full

Hourly Weather History & Observations

Time (CDT) Temp. Heat Index Dew Point Humidity Pressure Visibility Wind Dir Wind Speed Gust Speed Precip Events Conditions
12:15 AM 77.0 °F - 76.5 °F 98% 30.03 in 10.0 mi East 3.5 mph - N/A   Overcast
12:35 AM 77.0 °F - 76.3 °F 98% 30.03 in 10.0 mi Calm Calm - N/A   Scattered Clouds
12:55 AM 76.3 °F - 75.4 °F 97% 30.03 in 10.0 mi Calm Calm - N/A   Clear
1:15 AM 75.9 °F - 75.0 °F 97% 30.03 in 10.0 mi Calm Calm - N/A   Clear
1:35 AM 75.4 °F - 74.8 °F 98% 30.03 in 10.0 mi Calm Calm - N/A   Clear
1:55 AM 75.4 °F - 75.2 °F 99% 30.03 in 7.0 mi Calm Calm - N/A   Clear
2:15 AM 75.2 °F - 74.8 °F 99% 30.03 in 7.0 mi Calm Calm - N/A   Clear
2:35 AM 75.2 °F - 75.2 °F 100% 30.02 in 7.0 mi Calm Calm - N/A   Clear
3:15 AM 74.3 °F - 74.3 °F 100% 30.02 in 5.0 mi Calm Calm - N/A   Clear
3:35 AM 74.3 °F - 74.3 °F 100% 30.01 in 5.0 mi Calm Calm - N/A   Clear
3:55 AM 74.3 °F - 74.3 °F 100% 30.02 in 7.0 mi Calm Calm - N/A   Clear
4:15 AM 74.3 °F - 74.1 °F 99% 30.01 in 5.0 mi Calm Calm - N/A   Clear
4:35 AM 74.5 °F - 74.3 °F 99% 30.01 in 7.0 mi Calm Calm - N/A   Clear
4:55 AM 74.7 °F - 74.3 °F 99% 30.00 in 10.0 mi Calm Calm - N/A   Clear
5:15 AM 75.2 °F - 74.3 °F 97% 30.00 in 10.0 mi Calm Calm - N/A   Clear
5:35 AM 75.2 °F - 74.5 °F 98% 30.00 in 10.0 mi Calm Calm - N/A   Clear
5:55 AM 75.2 °F - 74.5 °F 98% 30.00 in 10.0 mi Calm Calm - N/A   Clear
6:15 AM 75.2 °F - 74.5 °F 98% 30.01 in 10.0 mi Calm Calm - N/A   Clear
6:35 AM 75.2 °F - 74.5 °F 98% 30.01 in 10.0 mi Calm Calm - N/A   Clear
6:55 AM 75.2 °F - 74.5 °F 98% 30.01 in 7.0 mi Calm Calm - N/A   Clear
7:15 AM 75.2 °F - 74.8 °F 99% 30.02 in 7.0 mi Calm Calm - N/A   Clear
7:35 AM 75.6 °F - 75.2 °F 99% 30.02 in 7.0 mi Calm Calm - N/A   Clear
7:55 AM 76.5 °F - 75.9 °F 98% 30.02 in 10.0 mi Calm Calm - N/A   Clear
8:15 AM 77.2 °F - 76.5 °F 98% 30.03 in 7.0 mi Calm Calm - N/A   Clear
8:35 AM 77.9 °F - 77.2 °F 98% 30.04 in 10.0 mi Calm Calm - N/A   Clear
8:55 AM 78.8 °F - 77.7 °F 96% 30.04 in 10.0 mi Calm Calm - N/A   Clear
9:35 AM 83.5 °F 94.0 °F 78.3 °F 84% 30.05 in 10.0 mi Calm Calm - N/A   Clear
9:55 AM 86.2 °F 98.3 °F 77.9 °F 76% 30.05 in 10.0 mi WNW 6.9 mph - N/A   Scattered Clouds
10:15 AM 85.8 °F 95.9 °F 76.5 °F 73% 30.05 in 10.0 mi NW 4.6 mph - N/A   Mostly Cloudy
10:35 AM 87.6 °F 99.7 °F 77.4 °F 71% 30.05 in 10.0 mi WNW 3.5 mph - N/A   Scattered Clouds
10:55 AM 86.5 °F 96.9 °F 76.1 °F 71% 30.05 in 10.0 mi Calm Calm - N/A   Scattered Clouds
11:15 AM 86.9 °F 96.8 °F 75.7 °F 69% 30.05 in 10.0 mi West 3.5 mph - N/A   Clear
11:35 AM 87.8 °F 98.6 °F 75.9 °F 68% 30.05 in 10.0 mi NW 4.6 mph - N/A   Scattered Clouds
11:55 AM 87.8 °F 99.1 °F 76.3 °F 69% 30.05 in 10.0 mi North 3.5 mph - N/A   Mostly Cloudy
12:15 PM 88.2 °F 100.1 °F 76.6 °F 69% 30.05 in 10.0 mi West 5.8 mph - N/A   Overcast
12:35 PM 79.3 °F - 72.5 °F 79% 30.05 in 5.0 mi SW 16.1 mph 23.0 mph 0.03 in Rain , Thunderstorm Heavy Thunderstorms and Rain
12:55 PM 74.3 °F - 72.3 °F 94% 30.07 in 4.0 mi SSE 13.8 mph 19.6 mph 0.14 in Rain , Thunderstorm Light Thunderstorms and Rain
1:15 PM 76.1 °F - 72.7 °F 89% 30.05 in 4.0 mi Calm Calm - 0.06 in Rain , Thunderstorm Heavy Thunderstorms and Rain
1:35 PM 76.1 °F - 73.8 °F 92% 30.03 in 7.0 mi WNW 4.6 mph - 0.13 in Rain , Thunderstorm Thunderstorms and Rain
1:55 PM 79.3 °F - 74.7 °F 86% 30.03 in 10.0 mi Calm Calm - 0.18 in   Mostly Cloudy
2:15 PM 83.5 °F 90.3 °F 73.9 °F 73% 30.02 in 10.0 mi SSW 3.5 mph - 0.03 in   Scattered Clouds
2:35 PM 84.6 °F 95.5 °F 77.9 °F 80% 30.01 in 10.0 mi SW 3.5 mph - 0.04 in   Clear
3:35 PM 84.7 °F 92.8 °F 74.7 °F 72% 29.98 in 10.0 mi SW 6.9 mph - N/A   Clear
3:55 PM 85.6 °F 95.0 °F 75.6 °F 72% 29.97 in 10.0 mi SSW 6.9 mph - N/A   Clear
4:15 PM 86.5 °F 95.0 °F 74.3 °F 67% 29.97 in 10.0 mi Calm Calm - N/A   Clear
5:15 PM 88.2 °F 96.0 °F 73.2 °F 61% 29.97 in 10.0 mi Calm Calm - N/A   Clear
5:55 PM 88.2 °F 97.4 °F 74.7 °F 64% 29.96 in 10.0 mi Calm Calm - N/A   Clear
6:35 PM 87.4 °F 98.7 °F 76.5 °F 70% 29.98 in 10.0 mi Calm Calm - N/A   Clear
6:55 PM 86.0 °F 98.3 °F 77.9 °F 77% 29.98 in 10.0 mi Calm Calm - N/A   Clear
7:15 PM 84.2 °F 94.5 °F 77.4 °F 80% 29.98 in 10.0 mi NNE 4.6 mph - N/A   Clear
7:35 PM 78.1 °F - 68.4 °F 72% 29.99 in 10.0 mi NNE 17.3 mph 29.9 mph N/A   Mostly Cloudy
7:55 PM 76.3 °F - 67.6 °F 74% 30.00 in 10.0 mi NNE 11.5 mph 26.5 mph N/A Thunderstorm Overcast
8:15 PM 75.2 °F - 68.4 °F 79% 30.01 in 10.0 mi North 9.2 mph - N/A Thunderstorm Overcast
8:35 PM 74.5 °F - 68.9 °F 83% 30.02 in 10.0 mi NNW 5.8 mph - N/A   Overcast
8:55 PM 74.3 °F - 69.4 °F 85% 30.03 in 10.0 mi West 4.6 mph - N/A   Light Drizzle